DELTA 1 DEB

Satellite information

Favourite Embed

Satellite Type and Status

DEBRISDECAYED

Key statistics

Satellite DELTA 1 DEB at a glance.

Uptime

18159

Days in orbit

Revolutions

≈ 15.7

Per day

Orbit

SSO

Sun Synchronous Orbit

Inclination

99.7

Latest

Satellite identification and parameters

Extended collection of information and parameters for DELTA 1 DEB.

Object identification

Identified? True

Debris? True

Object name: DELTA 1 DEB

International designator: 1975-052LG

Object number (NORAD): 35533

Object ID (CCSDS): 35533

Country: UNITED STATES OF AMERICA (US)

Current information (Y/N): Y

RCS size: SMALL

Orbital parameters

Decay date: Feb. 28, 2025

Period: 91.488 minutes

Inclination: 99.6827 deg

SMA: 6725.701 km

Apoapsis: 357.499 km

Periapsis: 337.633 km

RAAN: 77.2276 deg

Eccentricy: 0.0014769

Argument of periapsis: 157.7872 deg

Mean anomaly: 202.4027 deg

Mean motion: 15.73969912 rev/day

Mean motion (dot): 0.05743528 rev/day2

B* drag term: 0.033655 1/REarth

Two-line elements (TLE)

Creation date: Feb. 24, 2025, 5:11 p.m.

Reference frame: TEME

Reference center: EARTH

Epoch: Feb. 24, 2025, 12:21 a.m. UTC

TLE line 0: 0 DELTA 1 DEB

TLE line 1: 1 35533U 75052LG 25055.01485891 .05743528 00000-0 33655-1 0 9998

TLE line 2: 2 35533 99.6827 77.2276 0014769 157.7872 202.4027 15.73969912141125

Live tracking on map

Satellite DELTA 1 DEB has decayed and is no longer in orbit. No tracking available.

In-orbit conjunctions

Satellite DELTA 1 DEB has decayed and is no longer in orbit. No conjunctions available.

Associated space launch

Experimental meteorological satellite

DELTA 1 DEB was lifted into orbit during the mission ‘Delta 2910 | Nimbus 6’, on board a Delta 2910 space rocket.

The launch took place on June 12, 1975, 8:12 a.m. from Space Launch Complex 2W.

For more information about the launch, click the button.

Launch to space Delta 2910 | Nimbus 6
Delta 2910 | Nimbus 6

Agency: N/A

Status: Launch Successful

Launch date: June 12, 1975, 8:12 a.m. UTC

Rocket: Delta 2910

Launch pad: Space Launch Complex 2W

Location: Vandenberg SFB, CA, USA

...

Latest news about this satellite

There are no fresh news available about this satellite. Check back as we update our databases every day.


Newsletter sign-up

Weekly statistics, charts and insights to help you stay on top of the space industry.